Location: *
(37.5724°S, 58.0067°E)
Time: 21:44:44
(UTC+00:00)

USA 229 DEB - Visible Passes

Search period start: 28 November 2021 00:00
Search period end: 08 December 2021 00:00
Orbit: 944 x 1268 km, 63.4° (Epoch: 25 November)

Date Brightness Start Highest point End Pass type
(mag) Time Alt. Az. Time Alt. Az. Time Alt. Az.
28 Nov 5.6 16:03:27 10° ENE 16:04:04 10° ENE 16:04:40 10° E visible
28 Nov 3.9 17:50:18 34° N 17:53:52 65° ENE 18:01:19 10° SE visible
28 Nov 5.4 19:38:36 10° WNW 19:45:20 31° SW 19:51:46 10° SSE visible
29 Nov 4.3 17:04:14 20° N 17:09:11 41° ENE 17:16:10 10° SE visible
29 Nov 4.8 18:52:43 10° WNW 19:00:09 45° SW 19:07:14 10° SSE visible
29 Nov 6.4 20:49:55 10° SW 20:53:07 13° SSW 20:56:15 10° S visible
30 Nov 4.8 16:18:26 10° NNE 16:24:38 26° ENE 16:30:38 10° ESE visible
30 Nov 4.2 18:07:18 10° NW 18:15:08 67° SW 18:22:35 10° SSE visible
30 Nov 6.2 20:02:34 10° WSW 20:07:29 18° SW 20:12:15 10° S visible
30 Nov 6.7 23:55:23 10° S 23:57:01 11° SSE 23:58:37 10° SE visible
01 Dec 5.3 15:36:05 10° NE 15:40:11 15° ENE 15:44:13 10° ESE visible
01 Dec 3.9 17:22:21 10° NNW 17:30:15 83° ENE 17:37:47 10° SE visible
01 Dec 5.8 19:15:52 10° W 19:22:02 25° SW 19:27:57 10° SSE visible
02 Dec 4.1 16:37:53 10° N 16:45:30 54° ENE 16:52:48 10° SE visible
02 Dec 5.3 18:29:42 10° WNW 18:36:45 36° SW 18:43:29 10° SSE visible
02 Dec 6.6 20:28:31 10° SW 20:30:06 11° SSW 20:31:40 10° S visible
03 Dec 4.5 15:53:57 10° N 16:00:52 34° ENE 16:07:32 10° SE visible
03 Dec 4.7 17:44:00 10° NW 17:51:39 53° SW 17:58:55 10° SSE visible
03 Dec 6.5 19:40:23 10° WSW 19:44:21 15° SSW 19:48:13 10° S visible
03 Dec 6.6 23:30:54 10° S 23:33:58 13° SSE 23:36:56 10° SE visible
04 Dec 4.1 16:58:47 10° NW 17:06:41 78° WSW 17:14:13 10° SSE visible
04 Dec 6.2 18:53:19 10° W 18:58:47 20° SW 19:04:04 10° S visible
05 Dec 4.0 16:14:01 10° NNW 16:21:51 71° ENE 16:29:21 10° SE visible
05 Dec 5.8 18:06:51 10° W 18:13:25 29° SW 18:19:41 10° SSE visible
05 Dec 6.3 23:51:04 10° SSW 23:56:18 23° SE 00:01:16 10° E visible
06 Dec 5.2 17:20:53 10° WNW 17:28:12 42° SW 17:35:12 10° SSE visible
06 Dec 6.8 19:18:31 10° SW 19:21:17 12° SSW 19:24:01 10° S visible
06 Dec 6.6 23:06:48 10° S 23:10:50 16° SSE 23:14:43 10° ESE visible
07 Dec 4.5 16:35:23 10° NW 16:43:09 62° SW 16:50:34 10° SSE visible
07 Dec 6.6 18:30:59 10° WSW 18:35:37 17° SSW 18:40:06 10° S visible
07 Dec 6.8 22:23:00 10° S 22:25:12 11° SSE 22:27:20 10° SE visible
